^^
Meteo Knjazevac Station Historical Data
Daily Summary for March 21, 2021 Units:  English    Metric   Both
Daily Weekly Monthly Yearly Custom
  High: Low: Average:
Temperature: 63.5 °F 52.9 °F 57.4 °F
Dew Point: 53.5 °F 48.5 °F 50.7 °F
Humidity: 85% 70% 78%
Wind Speed: 2mph 0mph 0.6mph
Wind Gust: 5mph - -
Wind- - West
Pressure: 30.12 in 30.08 in -
Precipitation: 0.00 in    
Historical Graphs
 
 
Tabular Data for March 21, 2021
Time Temperature Dew Point Pressure Wind Wind Speed Wind Gust Humidity Rainfall Rate (Hourly) solar Conditions
00:00 63.5 °F 53.5 °F 30.08 in Calm   2 mph 70% 0.00 in 0 W/m2
00:10 63.2 °F 53.3 °F 30.08 in Calm   2 mph 70% 0.00 in 0 W/m2
00:20 63 °F 53 °F 30.08 in Calm   2 mph 70% 0.00 in 0 W/m2
00:30 62.6 °F 52.7 °F 30.08 in SW 1 mph 4 mph 70% 0.00 in 0 W/m2
00:40 62.4 °F 53.3 °F 30.08 in South 1 mph 3 mph 72% 0.00 in 0 W/m2
00:50 62.1 °F 52.9 °F 30.08 in Calm   2 mph 72% 0.00 in 0 W/m2
01:00 61.9 °F 52.8 °F 30.08 in WSW 1 mph 2 mph 72% 0.00 in 0 W/m2
01:10 61.4 °F 52.6 °F 30.08 in WNW 1 mph 2 mph 73% 0.00 in 0 W/m2
01:20 61 °F 52.3 °F 30.08 in Calm   2 mph 73% 0.00 in 0 W/m2
01:30 60.4 °F 52.1 °F 30.08 in WSW 1 mph 2 mph 74% 0.00 in 0 W/m2
01:40 59.5 °F 51.6 °F 30.08 in Calm   2 mph 75% 0.00 in 0 W/m2
01:50 58.8 °F 51.6 °F 30.09 in West 2 mph 5 mph 77% 0.00 in 0 W/m2
02:00 58.8 °F 51.6 °F 30.09 in WNW 1 mph 4 mph 77% 0.00 in 0 W/m2
02:10 58.8 °F 50.9 °F 30.09 in WNW 1 mph 3 mph 75% 0.00 in 0 W/m2
02:20 58.5 °F 51.3 °F 30.09 in Calm   2 mph 77% 0.00 in 0 W/m2
02:30 57.9 °F 51.1 °F 30.09 in NW 1 mph 2 mph 78% 0.00 in 0 W/m2
02:40 57.6 °F 50.8 °F 30.09 in NW 1 mph 2 mph 78% 0.00 in 0 W/m2
02:50 57.2 °F 50.7 °F 30.09 in Calm   2 mph 79% 0.00 in 0 W/m2
03:00 56.8 °F 50.4 °F 30.09 in Calm   1 mph 79% 0.00 in 0 W/m2
03:10 56.5 °F 50.1 °F 30.09 in West 2 mph 4 mph 79% 0.00 in 0 W/m2
03:20 56.5 °F 50.4 °F 30.10 in WNW 1 mph 4 mph 80% 0.00 in 0 W/m2
03:30 56 °F 49.9 °F 30.10 in West 1 mph 2 mph 80% 0.00 in 0 W/m2
03:40 55.9 °F 49.9 °F 30.10 in Calm   2 mph 80% 0.00 in 0 W/m2
03:50 55.8 °F 49.7 °F 30.10 in Calm   2 mph 80% 0.00 in 0 W/m2
04:00 55.6 °F 49.8 °F 30.10 in Calm     81% 0.00 in 0 W/m2
04:10 55.4 °F 49.7 °F 30.10 in Calm   1 mph 81% 0.00 in 0 W/m2
04:20 55.2 °F 49.5 °F 30.10 in Calm   2 mph 81% 0.00 in 0 W/m2
04:30 54.9 °F 49.2 °F 30.10 in Calm   1 mph 81% 0.00 in 0 W/m2
04:40 54.5 °F 49.4 °F 30.10 in WNW 1 mph 3 mph 83% 0.00 in 0 W/m2
04:50 54.1 °F 49.4 °F 30.10 in WNW 1 mph 2 mph 84% 0.00 in 0 W/m2
05:00 54 °F 49.2 °F 30.11 in WNW 1 mph 1 mph 84% 0.00 in 0 W/m2
05:10 53.8 °F 49.1 °F 30.11 in Calm   1 mph 84% 0.00 in 0 W/m2
05:20 53.4 °F 48.7 °F 30.11 in West 1 mph 2 mph 84% 0.00 in 0 W/m2
05:30 53.4 °F 49 °F 30.11 in WNW 2 mph 4 mph 85% 0.00 in 0 W/m2
05:40 53.4 °F 49 °F 30.11 in WNW 1 mph 4 mph 85% 0.00 in 0 W/m2
05:50 53.2 °F 48.8 °F 30.12 in Calm   2 mph 85% 0.00 in 9 W/m2
06:00 53.1 °F 48.7 °F 30.12 in Calm   2 mph 85% 0.00 in 19 W/m2
06:10 52.9 °F 48.5 °F 30.12 in NW 1 mph 2 mph 85% 0.00 in 34 W/m2
Knjazevac, Serbia
Compliments of Weather Underground - 2 mb